Location: Homewood
(41.1836°S, 175.9581°E)
Time: 11:42:54
(UTC+00:00)

SJ-12 - Pass Details

Date: 18 April 2024
Orbit: 546 x 559 km, 97.8° (Epoch: 25 May)

Event Time Altitude Azimuth Distance (km) Brightness Sun altitude
Rises 17:10:39 0° 2° (N) 2,723 7.4 -19.5°
Reaches altitude 10° 17:12:49 10° 357° (N) 1,835 6.4 -19.1°
Maximum altitude 17:16:41 51° 280° (W) 709 3.9 -18.3°
Drops below altitude 10° 17:20:36 10° 203° (SSW) 1,857 6.3 -17.6°
Sets 17:22:48 0° 197° (SSW) 2,758 7.2 -17.2°
